Total_Precipitation_Accumulation
0.44 0.35 0.44 0.42 0.41 0.53 0.54 0.64 0.70 0.68 0.60 0.55 0.56 0.60 0.61 0.61 0.63 0.65 0.71 0.87 0.97 1.10 1.24 1.48 1.62 1.83 1.82 1.84 1.94 1.97 2.06 2.06 2.20 2.44 2.68 2.77 2.78 2.62 2.62 2.88 2.90 2.59 2.60
0.33 0.32 0.35 0.32 0.38 0.51 0.55 0.66 0.67 0.66 0.63 0.59 0.55 0.60 0.67 0.69 0.67 0.68 0.77 1.08 1.20 1.26 1.34 1.48 1.62 1.68 1.67 1.70 1.86 1.97 2.09 2.04 2.21 2.66 2.96 3.00 3.10 2.93 2.88 2.85 2.85 2.90 2.72
0.42 0.42 0.29 0.32 0.38 0.47 0.56 0.63 0.68 0.65 0.63 0.57 0.55 0.56 0.62 0.66 0.73 0.76 0.85 1.31 1.45 1.54 1.56 1.58 1.70 1.75 1.64 1.67 1.84 1.96 1.99 2.10 2.47 2.98 3.43 3.10 2.96 3.02 2.93 2.91 2.65 2.45 2.37
0.39 0.40 0.29 0.35 0.45 0.48 0.55 0.61 0.73 0.68 0.65 0.60 0.57 0.56 0.62 0.70 0.77 0.86 1.01 1.28 1.53 1.65 1.77 1.92 2.10 2.01 1.79 1.71 1.73 1.83 2.03 2.25 2.77 3.24 3.67 3.31 3.06 3.47 3.34 2.99 2.67 2.36 2.25
0.31 0.32 0.39 0.45 0.51 0.56 0.58 0.60 0.68 0.72 0.73 0.73 0.73 0.67 0.70 0.75 0.78 0.84 1.01 1.16 1.32 1.43 1.61 1.78 1.88 1.96 1.78 1.69 1.65 1.78 2.08 2.37 2.88 3.33 3.73 3.58 3.51 3.92 3.53 3.05 2.83 2.42 2.19
0.36 0.31 0.39 0.52 0.55 0.59 0.64 0.63 0.63 0.68 0.78 0.88 0.95 0.91 0.88 0.88 0.90 0.95 1.09 1.13 1.22 1.28 1.37 1.52 1.74 1.91 1.89 1.77 1.66 1.85 2.17 2.46 2.67 3.08 3.78 3.58 3.45 3.68 3.38 3.19 2.94 2.53 2.31
0.56 0.52 0.48 0.55 0.59 0.63 0.68 0.70 0.74 0.75 0.85 0.97 1.07 1.11 1.09 1.04 1.00 1.07 1.22 1.18 1.18 1.24 1.32 1.35 1.43 1.54 1.86 1.93 1.76 1.87 2.32 2.73 2.64 3.24 3.76 3.62 3.64 3.57 3.40 3.37 3.15 2.75 2.44
0.73 0.69 0.69 0.65 0.60 0.68 0.78 0.77 0.83 0.91 0.96 1.06 1.16 1.28 1.23 1.13 1.10 1.17 1.29 1.32 1.34 1.40 1.43 1.32 1.29 1.37 1.63 1.85 1.76 1.88 2.14 2.38 2.30 2.96 3.53 3.39 3.37 3.40 3.40 3.37 3.03 2.72 2.47
0.95 0.93 0.93 0.78 0.73 0.81 0.95 0.93 0.94 0.98 1.05 1.15 1.34 1.47 1.41 1.30 1.29 1.33 1.37 1.43 1.50 1.54 1.57 1.56 1.51 1.50 1.58 1.76 1.85 1.91 2.13 2.44 2.44 2.75 2.95 3.29 3.28 3.66 3.54 3.26 2.94 2.54 2.32
1.31 1.29 1.21 1.20 1.17 1.08 1.12 1.27 1.22 1.19 1.19 1.19 1.30 1.54 1.57 1.47 1.42 1.45 1.40 1.52 1.61 1.69 1.72 1.80 1.93 1.91 1.77 1.71 1.80 1.85 2.18 2.36 2.16 2.49 3.11 3.09 3.17 3.73 3.82 3.28 2.90 2.62 2.43
1.73 1.66 1.45 1.51 1.53 1.39 1.36 1.32 1.48 1.46 1.40 1.34 1.38 1.56 1.62 1.72 1.72 1.68 1.61 1.85 1.88 2.00 2.10 2.14 2.13 2.00 1.92 1.83 1.85 1.92 2.09 2.08 2.31 2.76 3.09 2.93 3.16 3.69 3.96 3.68 3.12 2.84 2.61
1.91 1.84 1.76 1.62 1.55 1.53 1.43 1.53 1.71 1.66 1.66 1.55 1.74 1.74 1.88 2.33 2.51 2.17 2.36 2.51 2.55 2.61 2.60 2.46 2.35 2.23 2.01 1.69 1.82 2.04 1.82 1.97 2.47 2.87 2.78 2.82 3.13 3.65 4.02 3.95 3.57 3.22 2.96
2.25 2.07 2.12 1.97 1.81 2.00 2.09 1.97 1.98 2.04 2.17 2.05 2.21 2.27 2.44 2.68 2.75 2.74 2.86 2.81 2.91 2.97 2.83 2.74 2.52 2.20 1.95 1.80 1.86 1.96 1.76 1.78 2.13 2.38 2.65 2.86 3.07 3.58 3.96 3.87 3.80 3.76 3.54
2.88 2.70 2.57 2.56 2.43 2.55 2.79 2.58 2.29 2.20 2.28 2.36 2.60 2.54 2.86 3.03 3.06 3.08 3.15 3.09 3.08 3.10 3.12 2.87 2.73 2.54 2.36 2.13 1.99 2.00 1.93 1.91 2.12 2.37 2.68 2.78 2.85 3.41 3.91 3.94 3.86 3.87 3.99
3.09 3.22 2.99 2.94 2.89 3.06 3.24 3.09 2.85 2.80 2.57 2.54 2.87 2.94 3.09 3.25 3.26 3.38 3.38 3.37 3.12 3.08 3.05 2.93 2.72 2.79 2.71 2.45 2.15 2.11 2.17 2.14 2.25 2.49 2.59 2.77 2.81 3.18 3.72 4.03 4.03 4.03 4.23
3.00 3.29 3.40 3.39 3.32 3.14 3.23 3.28 3.06 2.80 2.91 2.78 2.82 2.99 3.04 3.23 3.53 3.62 3.60 3.58 3.48 3.34 3.36 3.18 2.99 3.17 3.05 2.91 2.66 2.51 2.39 2.47 2.46 2.53 2.74 2.93 2.87 2.89 3.27 3.69 3.94 4.15 4.46
2.88 3.09 3.27 3.40 3.56 3.38 3.37 3.40 3.21 3.02 3.04 3.10 3.14 3.32 3.22 3.18 3.52 3.71 3.88 3.81 3.80 3.68 3.64 3.56 3.52 3.61 3.30 3.10 2.90 2.75 2.69 2.78 2.73 2.65 2.80 2.98 2.92 3.00 3.06 3.15 3.34 3.61 4.03
2.47 2.79 3.09 3.25 3.46 3.66 3.71 3.84 3.60 3.60 3.65 3.60 3.41 3.38 3.30 3.30 3.52 3.88 4.00 4.04 4.13 4.03 4.09 4.14 4.04 3.89 3.76 3.49 3.25 2.90 2.76 2.93 2.90 2.88 2.91 2.94 3.12 3.05 3.08 2.97 3.01 3.11 3.49
2.17 2.68 3.05 3.41 3.79 4.02 4.22 4.45 4.40 4.47 4.33 4.14 4.03 3.86 3.89 4.03 4.04 4.20 4.29 4.39 4.48 4.54 4.57 4.36 4.51 4.27 4.17 3.96 3.47 3.20 2.92 2.83 2.84 2.77 2.88 2.79 2.90 3.00 3.13 3.07 3.02 3.04 3.28
2.34 2.75 3.16 3.46 4.06 4.59 4.68 4.87 4.98 5.20 5.13 4.97 4.98 4.81 4.56 4.67 4.77 4.90 4.78 4.86 4.94 5.02 4.90 4.88 4.96 4.72 4.37 4.28 3.78 3.50 3.23 2.95 2.93 2.90 2.87 2.98 2.84 2.65 2.87 3.05 3.21 3.03 3.25
2.98 3.16 3.42 3.66 4.03 4.33 4.76 5.12 5.32 5.49 5.68 5.75 5.70 5.64 5.61 5.59 5.74 5.80 5.51 5.52 5.45 5.33 5.12 5.12 5.01 4.74 4.42 4.39 4.28 3.81 3.20 2.81 2.75 2.65 2.63 2.84 2.80 2.68 2.78 2.95 3.04 2.93 2.80
3.41 3.47 3.72 4.08 4.39 4.58 4.98 5.51 6.01 6.22 6.30 6.30 6.30 6.41 6.44 6.41 6.58 6.63 6.60 6.34 6.13 5.86 5.39 5.04 4.89 4.63 4.24 4.38 4.44 4.40 3.68 3.18 2.63 2.17 2.27 2.31 2.37 2.63 2.61 2.59 2.77 2.90 2.76
3.40 3.50 3.69 4.25 4.74 5.20 5.64 6.22 6.72 7.04 7.03 6.86 6.53 6.62 6.76 6.57 6.62 6.81 6.81 6.59 6.22 5.65 5.08 4.95 4.93 4.76 4.48 4.41 4.36 4.59 4.00 3.42 2.94 2.42 2.10 2.01 2.14 2.29 2.34 2.38 2.43 2.54 2.52
3.26 3.54 3.82 4.26 4.94 5.46 5.77 6.40 7.06 7.30 7.50 7.53 7.32 7.02 6.82 6.55 6.40 6.34 6.22 5.84 5.45 5.06 4.74 4.59 4.67 4.56 4.55 4.36 4.31 4.01 3.71 3.38 3.14 2.75 2.26 2.02 2.09 2.15 2.15 2.10 2.14 2.37 2.47
3.26 3.40 3.59 4.12 4.77 5.51 6.14 6.62 7.22 7.71 7.93 7.86 7.44 6.95 6.41 6.06 5.62 5.21 4.90 4.73 4.67 4.49 4.28 4.12 4.14 4.04 3.85 3.77 3.78 3.74 3.67 3.37 3.04 2.85 2.55 2.31 2.27 2.07 2.05 2.12 2.19 2.33 2.50
2.88 3.13 3.40 3.82 4.54 5.27 5.87 6.46 6.98 7.38 7.48 7.17 6.62 6.07 5.71 5.30 4.79 4.26 4.02 3.92 3.82 3.64 3.43 3.32 3.32 3.31 3.39 3.45 3.53 3.53 3.47 3.37 3.15 3.14 2.93 2.64 2.50 2.33 2.23 2.21 2.22 2.35 2.57